TimeCDT,TemperatureF,Dew PointF,Humidity,Sea Level PressureIn,VisibilityMPH,Wind Direction,Wind SpeedMPH,Gust SpeedMPH,PrecipitationIn,Events,Conditions,WindDirDegrees,DateUTC
12:15 AM,62.6,55.4,77,30.13,10.0,SSW,6.9,-,N/A,,Clear,200,2013-06-27 05:15:00
12:35 AM,60.8,55.4,82,30.12,10.0,South,9.2,-,N/A,,Clear,190,2013-06-27 05:35:00
12:55 AM,60.8,55.4,82,30.12,10.0,SSW,10.4,-,N/A,,Clear,200,2013-06-27 05:55:00
1:15 AM,60.8,55.4,82,30.12,10.0,Calm,Calm,-,N/A,,Clear,0,2013-06-27 06:15:00
1:35 AM,60.8,55.4,82,30.13,10.0,South,3.5,-,N/A,,Clear,180,2013-06-27 06:35:00
1:55 AM,59.0,53.6,82,30.13,10.0,South,3.5,-,N/A,,Clear,180,2013-06-27 06:55:00
2:15 AM,59.0,53.6,82,30.13,10.0,South,4.6,-,N/A,,Clear,190,2013-06-27 07:15:00
2:35 AM,59.0,53.6,82,30.14,10.0,SSW,4.6,-,N/A,,Partly Cloudy,210,2013-06-27 07:35:00
2:55 AM,59.0,53.6,82,30.14,10.0,Calm,Calm,-,N/A,,Partly Cloudy,0,2013-06-27 07:55:00
3:15 AM,59.0,53.6,82,30.14,10.0,SSW,4.6,-,N/A,,Clear,200,2013-06-27 08:15:00
3:35 AM,60.8,53.6,77,30.15,10.0,SSW,5.8,-,N/A,,Clear,210,2013-06-27 08:35:00
3:55 AM,59.0,53.6,82,30.15,10.0,SW,3.5,-,N/A,,Clear,220,2013-06-27 08:55:00
4:15 AM,59.0,53.6,82,30.15,10.0,SW,4.6,-,N/A,,Clear,230,2013-06-27 09:15:00
4:35 AM,59.0,51.8,77,30.15,10.0,Calm,Calm,-,N/A,,Clear,0,2013-06-27 09:35:00
4:55 AM,57.2,51.8,82,30.16,10.0,Calm,Calm,-,N/A,,Clear,0,2013-06-27 09:55:00
5:15 AM,57.2,51.8,82,30.15,10.0,SSW,6.9,-,N/A,,Clear,210,2013-06-27 10:15:00
5:35 AM,57.2,51.8,82,30.15,10.0,Calm,Calm,-,N/A,,Clear,0,2013-06-27 10:35:00
5:55 AM,57.2,51.8,82,30.16,10.0,Calm,Calm,-,N/A,,Clear,0,2013-06-27 10:55:00
6:15 AM,59.0,50.0,72,30.16,10.0,SSW,3.5,-,N/A,,Clear,200,2013-06-27 11:15:00
6:35 AM,59.0,51.8,77,30.16,10.0,South,6.9,-,N/A,,Clear,170,2013-06-27 11:35:00
6:55 AM,59.0,51.8,77,30.17,10.0,SSW,5.8,-,N/A,,Clear,200,2013-06-27 11:55:00
7:15 AM,62.6,53.6,72,30.17,10.0,Calm,Calm,-,N/A,,Clear,0,2013-06-27 12:15:00
7:35 AM,64.4,55.4,73,30.18,10.0,Calm,Calm,-,N/A,,Clear,0,2013-06-27 12:35:00
7:55 AM,66.2,55.4,68,30.18,10.0,Calm,Calm,-,N/A,,Clear,0,2013-06-27 12:55:00
8:15 AM,66.2,55.4,68,30.18,10.0,Calm,Calm,-,N/A,,Clear,0,2013-06-27 13:15:00
8:35 AM,68.0,55.4,64,30.18,10.0,Calm,Calm,-,N/A,,Clear,0,2013-06-27 13:35:00
8:55 AM,71.6,53.6,53,30.18,10.0,Calm,Calm,-,N/A,,Clear,0,2013-06-27 13:55:00
9:15 AM,73.4,53.6,50,30.18,10.0,East,3.5,-,N/A,,Clear,100,2013-06-27 14:15:00
9:35 AM,73.4,53.6,50,30.18,10.0,ENE,3.5,-,N/A,,Clear,70,2013-06-27 14:35:00
9:55 AM,73.4,55.4,53,30.18,10.0,Calm,Calm,-,N/A,,Clear,0,2013-06-27 14:55:00
10:15 AM,75.2,55.4,50,30.18,10.0,Calm,Calm,-,N/A,,Clear,0,2013-06-27 15:15:00
10:35 AM,75.2,57.2,53,30.18,10.0,NW,6.9,-,N/A,,Clear,320,2013-06-27 15:35:00
10:55 AM,75.2,57.2,53,30.18,10.0,NNW,8.1,-,N/A,,Clear,330,2013-06-27 15:55:00
11:15 AM,77.0,59.0,54,30.19,10.0,NW,5.8,-,N/A,,Clear,310,2013-06-27 16:15:00
11:35 AM,77.0,59.0,54,30.19,10.0,North,8.1,-,N/A,,Partly Cloudy,360,2013-06-27 16:35:00
11:55 AM,77.0,59.0,54,30.18,10.0,NW,4.6,-,N/A,,Partly Cloudy,310,2013-06-27 16:55:00
12:15 PM,77.0,59.0,54,30.19,10.0,North,8.1,-,N/A,,Partly Cloudy,360,2013-06-27 17:15:00
12:35 PM,78.8,59.0,51,30.19,10.0,North,6.9,-,N/A,,Partly Cloudy,360,2013-06-27 17:35:00
12:55 PM,78.8,62.6,57,30.20,10.0,NE,9.2,-,N/A,,Clear,50,2013-06-27 17:55:00
1:15 PM,77.0,59.0,54,30.19,10.0,ENE,8.1,-,N/A,,Partly Cloudy,70,2013-06-27 18:15:00
1:35 PM,78.8,60.8,54,30.19,10.0,NE,6.9,-,N/A,,Clear,50,2013-06-27 18:35:00
1:55 PM,78.8,62.6,57,30.19,10.0,NE,6.9,-,N/A,,Clear,40,2013-06-27 18:55:00
2:15 PM,78.8,60.8,54,30.19,10.0,East,6.9,-,N/A,,Partly Cloudy,80,2013-06-27 19:15:00
2:35 PM,78.8,60.8,54,30.19,10.0,NE,6.9,-,N/A,,Clear,40,2013-06-27 19:35:00
2:55 PM,80.6,60.8,51,30.19,10.0,NNE,5.8,-,N/A,Rain,Light Rain,30,2013-06-27 19:55:00
3:15 PM,80.6,57.2,45,30.19,10.0,NW,5.8,-,N/A,,Clear,320,2013-06-27 20:15:00
3:35 PM,82.4,57.2,42,30.19,10.0,NNW,13.8,17.3,N/A,,Clear,330,2013-06-27 20:35:00
3:55 PM,82.4,53.6,37,30.19,10.0,NNW,15.0,23.0,N/A,,Clear,330,2013-06-27 20:55:00
4:15 PM,82.4,51.8,35,30.19,10.0,NNW,12.7,24.2,N/A,,Clear,330,2013-06-27 21:15:00
4:35 PM,82.4,53.6,37,30.19,10.0,NNW,16.1,-,N/A,,Clear,330,2013-06-27 21:35:00
4:55 PM,82.4,53.6,37,30.19,10.0,NNW,13.8,21.9,N/A,,Clear,330,2013-06-27 21:55:00
5:15 PM,82.4,53.6,37,30.19,10.0,NNW,11.5,-,N/A,,Clear,330,2013-06-27 22:15:00
5:35 PM,82.4,55.4,39,30.19,10.0,NNW,13.8,17.3,N/A,,Clear,330,2013-06-27 22:35:00
5:55 PM,82.4,55.4,39,30.19,10.0,North,12.7,-,N/A,,Clear,360,2013-06-27 22:55:00
6:15 PM,80.6,55.4,42,30.19,10.0,North,13.8,19.6,N/A,,Clear,350,2013-06-27 23:15:00
6:35 PM,80.6,57.2,45,30.20,10.0,NNW,13.8,17.3,N/A,,Clear,330,2013-06-27 23:35:00
6:55 PM,78.8,55.4,44,30.21,10.0,NNW,9.2,19.6,N/A,,Clear,340,2013-06-27 23:55:00
7:15 PM,77.0,55.4,47,30.21,10.0,NNW,13.8,17.3,N/A,,Clear,330,2013-06-28 00:15:00
7:35 PM,77.0,55.4,47,30.21,10.0,NNW,12.7,-,N/A,,Clear,340,2013-06-28 00:35:00
7:55 PM,77.0,53.6,44,30.22,10.0,NW,10.4,-,N/A,,Clear,320,2013-06-28 00:55:00
8:15 PM,75.2,53.6,47,30.23,10.0,NNW,9.2,-,N/A,,Clear,330,2013-06-28 01:15:00
8:35 PM,73.4,53.6,50,30.23,10.0,NNW,8.1,-,N/A,,Clear,330,2013-06-28 01:35:00
8:55 PM,71.6,53.6,53,30.23,7.0,WNW,5.8,-,N/A,,Clear,300,2013-06-28 01:55:00
9:15 PM,71.6,53.6,53,30.23,0.5,WNW,4.6,-,N/A,,Haze,300,2013-06-28 02:15:00
9:35 PM,68.0,53.6,60,30.24,10.0,WNW,4.6,-,N/A,,Clear,290,2013-06-28 02:35:00
9:55 PM,66.2,53.6,64,30.24,10.0,West,5.8,-,N/A,,Clear,260,2013-06-28 02:55:00
10:15 PM,68.0,51.8,56,30.24,10.0,WSW,4.6,-,N/A,,Clear,250,2013-06-28 03:15:00
10:35 PM,62.6,53.6,72,30.25,10.0,WSW,5.8,-,N/A,,Clear,250,2013-06-28 03:35:00
10:55 PM,60.8,53.6,77,30.26,10.0,SW,5.8,-,N/A,,Clear,230,2013-06-28 03:55:00
11:15 PM,62.6,53.6,72,30.26,10.0,West,3.5,-,N/A,,Clear,280,2013-06-28 04:15:00
11:35 PM,59.0,53.6,82,30.26,10.0,SW,5.8,-,N/A,,Clear,220,2013-06-28 04:35:00
11:55 PM,59.0,53.6,82,30.26,10.0,SSW,4.6,-,N/A,,Clear,210,2013-06-28 04:55:00